User: anonymous   Login
Location: Middle Street
(51.7167°N, 0.0333°E)
Time: 19:41:45
(UTC+00:00)
Language:

Cosmos 1455 - Orbit

View from above orbital plane
View from above orbital plane
View from above satellite
View from above satellite

Ground track
Ground track

The orbit data is extracted from the following two-line orbital elements,

1 14032U 83037A   21112.48606448  .00001154  00000-0  53714-4 0  9993
2 14032  82.5134 137.7756 0018444  73.6509 286.6752 15.18757462 74555
Epoch (UTC): 22 April 2021 11:39:55
Eccentricity: 0.0018444
inclination: 82.5134°
perigee height: 497 km
apogee height: 522 km
right ascension of ascending node: 137.7756°
argument of perigee: 73.6509°
revolutions per day: 15.18757462
mean anomaly at epoch: 286.6752°
orbit number at epoch: 7455

The dashed part of the orbit path shows where the satellite is in the earth's shadow,  

DLR